Regional Weather Roundup
Issued by NWS

Home | Current Version | Previous Version | Text Only | Print | Product List | Glossary On
Versions: 1 2 3 4 5 6 7 8 9 10 11 12 13 14 15 16 17 18 19 20 21 22 23 24 25 26 27 28 29 30 31 32 33 34 35 36 37 38 39 40 41 42 43 44 45 46 47 48 49 50
000
ASUS45 KABQ 230410
RWRNM
NEW MEXICO REGIONAL WEATHER ROUNDUP
NATIONAL WEATHER SERVICE ALBUQUERQUE NM
1000 PM MDT FRI MAY 22 2015

NOTE: "FAIR" MEANS FEW OR NO CLOUDS BELOW 12,000 FEET AGL WITH NO
       SIGNIFICANT WEATHER OR OBSTRUCTIONS TO VISION.

      THIS PRODUCT IS RELEASED AS TWO VERSIONS.  ONE VERSION NEAR
      THE TOP OF THE HOUR CONTAINING PRELIMINARY DATA FROM ALBUQUERQUE
      AND OTHER STATIONS.  A FINAL VERSION WITH ADDITIONAL DATA IS
      ISSUED ABOUT 10 MINUTES AFTER THE HOUR.

NMZ501-503-504-510>518-230500-
NORTHWEST PLATEAU/NORTHCENTRAL MOUNTAINS

CITY           SKY/WX    TMP DP  RH WIND       PRES   REMARKS
FARMINGTON     CLEAR     59  29  31 W14       29.93R
LOS ALAMOS     MOCLDY    55  42  62 S7        30.06R
SANTA FE       PTCLDY    57  46  66 SE21G29   29.99R
TAOS           MOCLDY    50  36  57 NE3       30.07F
ANGEL FIRE     FAIR      46  39  78 N7        30.16R

$$
NMZ402-403-502-505>509-230500-
WESTCENTRAL MOUNTAINS/SOUTHWEST MOUNTAINS

CITY           SKY/WX    TMP DP  RH WIND       PRES   REMARKS
GALLUP         CLOUDY    55  20  25 SW17G23   30.03R
GRANTS         CLOUDY    57  20  23 W9        30.03R
SILVER CITY    CLEAR     63  14  15 W10       30.04R

$$
NMZ407-409-411-412-230500-
SOUTHERN DESERTS

CITY           SKY/WX    TMP DP  RH WIND       PRES   REMARKS
LORDSBURG      FAIR      64  21  19 W8        29.98R
DEMING         PTCLDY    70  17  13 SW12      29.95R
LAS CRUCES     CLOUDY    74  12   9 W18       29.93R
HOLLOMAN AFB   CLOUDY    70  29  21 S8        29.88R
ALAMOGORDO     CLOUDY    66  19  16 SE10      29.92R
T OR C         PTCLDY    70  20  15 SW9       29.92R

$$
NMZ519>523-230500-
CENTRAL VALLEYS/CENTRAL HIGHLANDS

CITY           SKY/WX    TMP DP  RH WIND       PRES   REMARKS
ALBUQUERQUE    PTCLDY    66  28  24 SE14      29.93R
DOUBLE EAGLE   CLEAR     57  37  47 S10       29.96R
MORIARTY ARPT  FAIR      57  49  74 SE23      30.03R
CLINES CORNERS PTCLDY    52  49  89 SE12      30.08R
BELEN          FAIR      64  17  16 SW8       29.93R
SOCORRO        FAIR      69  20  15 S8        29.92R

$$
NMZ524>526-539-540-230500-
SOUTHCENTRAL MOUNTAINS

CITY           SKY/WX    TMP DP  RH WIND       PRES   REMARKS
RUIDOSO        MOCLDY    57  54  88 SE15      30.12R

$$
NMZ527>531-230500-
NORTHEAST HIGHLANDS/NORTHEAST PLAINS

CITY           SKY/WX    TMP DP  RH WIND       PRES   REMARKS
LAS VEGAS      MOCLDY    50  47  89 S8        30.10R
RATON          CLOUDY    54  47  77 SW8       30.08R
CLAYTON        CLOUDY    56  53  90 S16       30.05R

$$
NMZ532>537-230500-
EASTCENTRAL PLAINS

CITY           SKY/WX    TMP DP  RH WIND       PRES   REMARKS
TUCUMCARI      CLOUDY    60  55  83 SE14      30.02R
CANNON AFB     NOT AVBL
CLOVIS AIRPORT CLOUDY    57  55  94 SE13      30.06S

$$
NMZ028-029-538-230500-
SOUTHEAST PLAINS

CITY           SKY/WX    TMP DP  RH WIND       PRES   REMARKS
ROSWELL        CLOUDY    65  60  84 SE6       29.97R
ARTESIA        MOCLDY    68  64  88 SE18      29.96R
CARLSBAD       CLOUDY    70  65  84 SE20G25   29.95R
HOBBS          CLOUDY    64  64 100 E12G18    30.03R FOG


$$


USA.gov is the U.S. government's official web portal to all federal, state and local government web resources and services.